User: anonymous   Login
Location: Lavington
(51.2833°N, 1.9833°W)
Time: 17:37:59
(UTC+00:00)
Language:

STARLINK-1222 - Orbit

View from above orbital plane
View from above orbital plane
View from above satellite
View from above satellite

Ground track
Ground track

The orbit data is extracted from the following two-line orbital elements,

1 45228U 20012BC  20228.50001157  .00005165  00000-0  37332-3 0  9997
2 45228  52.9989 129.4753 0001578  85.0885  99.3428 15.05585568 28172
Epoch (UTC): 15 August 2020 12:00:01
Eccentricity: 0.0001578
inclination: 52.9989°
perigee height: 548 km
apogee height: 551 km
right ascension of ascending node: 129.4753°
argument of perigee: 85.0885°
revolutions per day: 15.05585568
mean anomaly at epoch: 99.3428°
orbit number at epoch: 2817

The dashed part of the orbit path shows where the satellite is in the earth's shadow,  

DLR